Temp
67 63 59 67 69 68 66 63 62 67 71 62 62 62 67 72 72 71 73 74 76 76 80 74 70 69 66 65 63 60 58 58 56 53 51 51 51 52 52 53 52 51 50 49
61 57 68 71 68 65 65 59 59 66 68 58 60 59 66 69 69 70 71 73 75 77 77 72 69 66 63 62 61 60 58 57 56 55 54 55 54 54 54 52 50 50 49 48
59 67 64 63 63 58 59 57 59 60 64 57 55 53 59 66 68 70 71 73 74 74 75 70 66 63 61 60 59 58 58 57 56 55 55 52 51 49 48 48 48 48 49 47
62 67 63 62 57 61 53 65 62 58 54 50 57 46 60 66 67 68 69 72 76 78 73 70 64 62 60 58 58 58 57 56 55 55 52 49 47 47 50 51 50 48 48 47
60 60 54 53 58 62 57 55 56 55 52 52 53 49 56 61 59 62 66 70 76 76 67 65 62 60 60 58 57 56 56 54 54 52 51 49 49 51 52 49 47 46 47 46
58 58 58 60 54 55 55 53 53 51 51 41 53 52 53 60 59 63 65 69 69 66 65 64 63 61 59 58 56 53 53 54 52 51 51 50 49 49 47 46 45 45 46 45
57 56 59 56 53 52 52 51 46 43 41 41 59 53 57 64 67 67 68 72 68 65 63 62 60 58 57 55 53 52 52 52 52 49 50 49 49 49 46 45 45 44 43 43
52 49 54 54 56 58 49 54 45 36 39 45 50 45 56 69 70 70 70 70 67 62 62 61 61 58 56 54 52 51 51 51 51 49 49 49 48 47 46 45 44 43 42 42
51 52 49 51 52 57 49 43 54 45 37 38 50 57 66 63 64 65 63 60 60 63 63 60 60 58 56 54 52 50 50 50 51 49 49 48 46 45 44 43 43 42 42 40
59 48 54 45 50 50 51 52 43 45 33 34 46 49 52 59 59 61 59 59 63 66 64 62 60 58 57 55 53 51 51 50 50 49 47 46 44 44 43 42 40 39 39 38
57 52 49 45 44 49 41 44 44 46 46 38 36 46 63 60 62 62 61 59 60 65 62 62 60 59 57 56 53 51 50 49 48 47 46 43 41 42 41 39 39 38 37 36
53 47 43 51 57 49 50 52 51 41 39 43 42 43 60 62 64 65 60 61 65 64 65 66 63 59 55 54 53 51 50 48 48 46 44 42 40 39 37 36 37 36 34 34
48 39 34 41 46 43 43 48 49 51 48 40 37 42 62 66 65 61 61 63 63 64 65 66 62 58 55 53 52 51 49 47 47 45 42 40 38 36 35 35 35 33 32 31
50 41 39 38 45 52 44 47 47 46 40 40 42 47 56 59 60 63 64 65 66 67 64 64 61 57 55 53 51 50 48 47 45 42 39 36 35 34 34 34 32 31 30 29
45 36 40 43 47 49 46 46 44 41 44 40 45 46 54 58 60 63 65 64 62 63 63 62 57 59 55 50 48 47 47 45 41 37 36 34 34 33 32 30 29 28 28 27
43 31 37 34 42 43 39 43 44 44 45 45 45 43 56 59 61 60 60 61 59 59 60 58 57 55 48 46 46 43 43 41 37 35 33 33 31 29 28 27 26 26 25 24
34 32 31 28 37 36 29 36 40 43 47 48 41 49 57 57 57 57 59 61 59 59 58 56 56 53 47 45 42 41 41 37 33 32 30 28 27 25 25 25 23 22 22 23
33 32 32 29 32 22 37 49 47 43 47 50 51 53 56 57 59 59 61 59 57 56 55 56 56 56 49 46 43 40 36 32 30 28 25 25 24 23 23 21 20 21 21 21
40 35 30 27 27 36 41 47 45 42 42 50 49 52 54 56 54 55 60 60 59 59 56 48 48 49 47 42 39 34 30 29 27 25 24 24 22 20 20 18 19 20 20 19
40 37 32 29 25 24 41 50 55 53 34 54 54 52 52 52 43 50 59 55 53 43 43 41 41 40 38 36 33 28 27 26 25 25 24 23 20 18 16 17 18 18 17 16
31 31 28 28 27 32 47 53 52 34 39 53 54 54 54 50 54 58 48 47 44 43 39 39 36 35 35 31 28 26 26 25 27 24 22 19 18 17 17 16 17 15 14 15
37 30 28 29 26 25 49 48 40 51 56 56 57 57 53 52 53 54 55 46 42 39 35 34 30 29 28 28 26 25 23 25 22 19 17 16 15 15 14 12 13 13 13 12
35 43 40 39 39 49 52 50 55 56 53 55 54 55 54 47 49 49 48 43 40 39 33 31 28 26 25 26 27 23 24 19 17 14 13 12 12 14 13 11 12 12 12 13
31 35 28 28 34 34 39 44 49 50 48 49 47 45 46 45 45 41 40 41 37 33 30 27 24 22 22 24 26 25 19 17 13 12 11 11 11 11 11 13 13 13 13 13
31 34 31 32 37 39 43 45 46 43 43 43 45 45 45 46 44 44 44 42 38 34 29 25 23 22 21 23 23 18 16 14 12 12 11 11 11 11 11 14 13 14 15 15
33 31 29 28 39 39 40 43 42 40 42 44 43 44 45 45 45 45 42 42 40 32 27 24 23 22 20 20 15 13 13 14 12 11 10 11 10 11 12 11 9 13 14 15
MSLP
1011.79 1011.15 1009.47 1008.49 1008.47 1008.18 1007.69 1007.34 1006.89 1006.13 1007.18 1008.17 1007.60 1007.11 1005.94 1005.37 1005.30 1004.76 1004.11 1003.97 1003.78 1004.19 1004.73 1006.65 1008.50 1009.93 1011.15 1012.34 1013.52 1014.71 1015.80 1016.64 1017.50 1018.27 1018.88 1019.26 1019.36 1019.79 1020.27 1020.66 1021.09 1021.39 1021.67 1022.13
1011.24 1009.76 1008.39 1008.49 1008.40 1008.20 1007.72 1007.58 1006.73 1006.50 1006.79 1008.36 1007.55 1006.55 1005.67 1005.21 1004.37 1003.86 1003.45 1002.73 1002.59 1002.96 1003.82 1005.54 1007.45 1009.14 1010.61 1011.75 1013.03 1014.17 1015.12 1015.95 1016.75 1017.45 1018.04 1018.42 1018.88 1019.28 1019.73 1020.34 1020.74 1021.10 1021.47 1021.83
1009.41 1007.99 1008.83 1008.77 1008.59 1008.76 1008.18 1007.86 1006.96 1007.11 1007.34 1008.39 1007.96 1005.90 1004.84 1004.01 1003.66 1003.26 1002.76 1001.88 1001.91 1002.33 1003.06 1004.78 1006.66 1008.40 1010.12 1011.10 1012.13 1013.06 1013.89 1014.79 1015.61 1016.45 1017.30 1018.16 1018.88 1019.56 1019.77 1020.00 1020.30 1020.77 1021.21 1021.59
1008.96 1008.56 1008.60 1008.80 1008.78 1009.04 1008.27 1007.88 1007.56 1007.81 1008.27 1007.15 1007.49 1003.38 1003.21 1002.96 1002.55 1002.50 1001.96 1000.85 1000.89 1001.43 1002.81 1004.37 1006.30 1007.79 1009.03 1010.30 1011.57 1012.48 1013.25 1014.01 1014.85 1015.75 1016.61 1017.27 1017.64 1018.07 1018.44 1018.90 1019.60 1020.25 1020.81 1021.30
1007.41 1008.42 1009.00 1009.03 1008.36 1009.04 1008.81 1009.19 1008.66 1008.38 1008.03 1007.23 1006.71 1004.91 1001.98 1002.06 1001.82 1001.72 1001.40 1000.51 1000.39 1001.23 1002.79 1004.26 1005.68 1007.17 1008.49 1009.84 1010.55 1011.62 1012.57 1013.37 1013.98 1014.94 1015.77 1016.41 1016.79 1017.14 1017.60 1018.59 1019.30 1019.78 1020.24 1020.70
1008.53 1009.40 1009.45 1008.95 1009.56 1009.68 1009.81 1009.67 1009.27 1009.01 1008.22 1005.63 1004.96 1003.91 1000.85 1000.60 1000.95 1000.97 1000.67 999.86 1000.54 1001.83 1003.08 1004.33 1005.61 1007.03 1007.97 1009.11 1010.14 1011.24 1012.14 1012.91 1013.67 1014.39 1015.03 1015.63 1016.21 1016.70 1017.39 1018.10 1018.66 1019.18 1019.56 1019.97
1007.58 1007.98 1008.62 1009.45 1009.96 1010.49 1010.28 1009.69 1008.39 1007.47 1006.89 1002.84 1003.15 1001.38 999.81 1000.01 1000.10 1000.24 1000.08 999.55 1000.71 1001.83 1002.93 1003.90 1004.99 1006.36 1007.48 1008.55 1009.70 1010.71 1011.40 1011.82 1012.70 1013.47 1014.16 1014.72 1015.36 1016.09 1016.77 1017.39 1017.97 1018.44 1018.79 1019.23
1006.78 1007.04 1007.86 1008.42 1008.18 1008.11 1009.24 1008.81 1007.75 1006.06 1005.53 1001.72 1002.34 999.14 998.24 998.43 998.74 999.29 998.81 999.67 1000.73 1001.96 1002.84 1003.71 1004.53 1005.45 1006.54 1007.44 1008.66 1009.50 1010.24 1010.73 1011.66 1012.46 1013.03 1013.84 1014.63 1015.33 1016.15 1016.98 1017.62 1018.12 1018.54 1018.85
1006.06 1006.26 1007.72 1008.26 1008.66 1008.53 1009.11 1009.10 1007.99 1007.06 1005.61 1004.06 999.74 998.11 997.17 997.76 998.27 998.38 999.22 1000.01 1000.51 1001.49 1002.27 1003.07 1003.83 1004.67 1005.76 1006.64 1007.35 1008.14 1009.07 1009.87 1010.57 1011.44 1012.07 1012.92 1013.82 1014.64 1015.54 1016.44 1017.12 1017.79 1018.31 1018.78
1004.81 1005.85 1006.77 1008.59 1009.05 1009.02 1008.69 1008.42 1008.14 1007.92 1006.22 1003.73 997.89 998.10 997.01 997.60 997.53 998.42 999.11 999.78 999.86 1000.54 1001.32 1002.25 1003.16 1004.05 1004.93 1005.77 1006.41 1007.32 1008.10 1008.71 1009.71 1010.59 1011.36 1012.09 1013.06 1014.10 1014.99 1015.96 1016.62 1017.22 1017.77 1018.34
1005.66 1006.24 1006.78 1008.63 1007.80 1007.07 1008.71 1007.88 1007.61 1007.04 1005.39 1003.78 1001.14 995.94 995.75 996.69 996.94 997.72 998.50 999.08 999.72 1000.14 1001.00 1001.45 1002.23 1003.19 1004.03 1004.92 1005.72 1006.44 1007.23 1007.91 1008.82 1009.77 1010.82 1011.65 1012.51 1013.60 1014.53 1015.44 1016.17 1016.71 1017.32 1017.91
1005.81 1006.10 1006.26 1005.46 1005.36 1006.30 1005.98 1005.28 1005.67 1005.32 1004.01 1003.65 1001.63 994.94 996.12 996.37 996.96 997.36 998.34 998.87 999.11 999.61 1000.01 1000.50 1001.07 1001.98 1002.97 1003.89 1004.73 1005.51 1006.37 1007.17 1008.00 1008.99 1010.12 1011.14 1012.10 1013.04 1014.01 1014.97 1015.64 1016.23 1016.81 1017.36
1006.30 1006.88 1006.98 1005.99 1006.28 1006.55 1006.11 1005.17 1004.83 1004.20 1003.70 1001.76 1001.59 996.29 996.44 996.22 996.23 996.86 997.63 998.06 998.65 999.10 999.38 999.36 1000.23 1001.07 1001.83 1002.72 1003.54 1004.36 1005.23 1006.13 1007.34 1008.55 1009.74 1010.83 1011.78 1012.82 1013.59 1014.42 1015.16 1015.77 1016.49 1017.05
1006.15 1007.03 1007.10 1005.70 1003.89 1003.76 1004.19 1004.24 1004.25 1004.42 1003.20 1000.15 999.05 998.20 994.54 995.76 996.26 995.62 996.64 996.64 997.31 997.36 997.83 998.43 999.33 999.99 1000.50 1001.49 1002.45 1003.39 1004.29 1005.49 1006.73 1008.03 1009.24 1010.31 1011.44 1012.34 1013.12 1014.12 1014.90 1015.53 1016.19 1016.72
1007.84 1007.28 1007.32 1006.12 1004.86 1003.66 1003.87 1003.60 1003.76 1003.15 1001.73 1001.35 997.95 998.56 996.71 995.34 995.25 994.69 995.63 995.46 996.68 996.54 997.14 997.76 998.33 998.88 999.65 1000.67 1001.63 1002.68 1003.67 1004.81 1006.12 1007.62 1008.97 1009.69 1010.84 1011.96 1013.02 1014.00 1014.83 1015.57 1016.16 1016.59
1007.77 1007.55 1007.43 1006.13 1004.78 1003.75 1003.64 1003.67 1002.52 1000.92 1001.23 1000.17 999.42 997.93 996.83 995.36 994.66 994.74 994.72 994.59 995.98 995.40 996.24 996.54 996.97 997.49 998.41 999.44 1000.37 1001.64 1002.86 1004.14 1005.75 1007.13 1008.44 1009.61 1010.58 1011.74 1012.69 1014.12 1014.78 1015.34 1015.98 1016.45
1007.57 1007.46 1007.04 1005.03 1004.26 1004.26 1003.23 1001.19 1000.56 1000.10 998.60 998.21 998.19 996.05 995.09 993.71 994.32 994.20 993.79 994.88 995.20 994.88 995.19 995.97 996.18 996.68 997.53 998.52 999.63 1000.84 1002.31 1004.22 1006.02 1007.27 1008.51 1009.74 1010.70 1011.59 1012.58 1013.70 1014.77 1015.24 1015.63 1015.76
1005.27 1006.16 1005.91 1003.80 1003.93 1001.42 998.77 999.27 998.65 997.67 996.92 995.76 996.01 995.75 994.39 993.49 992.83 994.47 993.97 994.69 994.39 994.96 995.05 995.29 995.60 995.99 996.88 998.25 999.82 1001.26 1002.67 1004.15 1005.44 1006.55 1007.74 1008.99 1010.00 1011.06 1012.00 1013.27 1014.23 1014.75 1014.87 1015.29
1003.11 1003.94 1003.61 1002.54 1000.54 997.83 997.14 996.15 996.03 995.39 993.24 994.74 994.63 993.37 992.75 993.08 994.06 993.43 992.41 993.45 993.99 994.19 995.11 995.91 996.20 996.37 997.45 998.79 1000.27 1001.85 1003.49 1004.90 1006.02 1006.72 1007.74 1008.93 1010.00 1011.01 1012.06 1013.02 1013.91 1014.34 1014.49 1014.61
1001.17 1001.74 1001.75 1000.64 998.59 995.90 994.52 994.63 993.90 992.93 992.96 993.47 992.14 992.05 992.06 991.90 993.17 991.78 991.47 992.94 993.11 994.16 995.13 995.23 995.60 996.42 997.62 999.46 1000.47 1002.65 1004.06 1004.64 1005.59 1006.74 1008.09 1009.44 1010.26 1011.02 1012.27 1013.20 1013.88 1014.27 1014.48 1014.73
1000.05 999.97 998.83 997.89 996.37 994.58 993.54 992.83 992.50 992.47 990.95 990.74 991.39 990.88 990.48 991.15 990.74 990.93 992.18 992.65 993.22 994.18 995.18 996.17 996.64 997.30 998.44 999.58 1000.22 1000.66 1002.58 1005.53 1006.59 1007.43 1008.87 1009.93 1010.62 1011.40 1012.16 1012.99 1013.54 1014.05 1014.49 1014.51
996.63 997.57 997.11 996.85 995.10 992.80 992.45 992.33 991.88 988.86 988.86 989.80 990.10 990.08 990.31 990.13 990.26 990.88 991.51 992.57 993.53 994.34 995.40 996.06 997.00 997.81 998.88 999.80 1000.59 1001.30 1002.01 1003.38 1005.51 1007.09 1008.39 1010.02 1010.98 1011.52 1012.30 1012.81 1013.42 1013.83 1014.15 1014.12
995.51 995.29 994.33 993.41 991.27 991.06 991.04 990.84 990.42 990.06 989.87 989.84 989.95 989.89 989.98 990.39 990.41 991.03 991.79 992.52 993.24 994.26 995.52 996.46 997.03 997.91 998.91 999.72 1000.04 1001.48 1002.18 1002.97 1004.91 1006.96 1008.61 1009.64 1010.75 1011.44 1012.29 1012.75 1012.95 1013.08 1013.33 1013.60
998.27 997.73 996.64 996.14 993.81 993.46 993.47 993.35 992.89 992.32 991.76 991.85 991.43 991.36 991.20 991.11 990.71 991.06 991.90 992.45 992.74 993.81 994.89 996.02 996.94 997.61 998.56 999.38 1000.37 1000.78 1002.66 1003.48 1004.58 1005.94 1007.93 1009.36 1010.44 1011.51 1012.28 1012.71 1013.03 1012.84 1012.78 1013.08
999.09 998.22 996.48 994.54 994.49 994.26 993.30 993.30 993.02 992.88 993.02 992.79 992.16 991.81 991.24 991.40 991.31 991.80 991.91 992.05 992.13 992.86 994.39 995.42 996.16 997.00 998.00 998.80 999.90 1001.32 1002.53 1003.80 1005.19 1006.35 1007.31 1008.82 1009.90 1010.60 1011.61 1012.08 1012.42 1012.54 1012.60 1012.82
999.78 998.48 997.50 995.19 994.86 994.84 993.90 993.95 993.68 993.57 993.40 992.62 992.20 991.35 990.99 991.04 990.81 990.92 991.09 991.27 991.58 992.37 993.39 994.66 995.63 996.31 997.45 998.63 999.79 1000.98 1001.87 1003.08 1004.46 1006.08 1006.78 1007.80 1009.18 1009.92 1010.78 1011.50 1012.78 1012.88 1012.77 1012.70
Wind_Speed
9 10 17 19 20 22 22 21 22 25 6 11 19 22 25 23 20 23 22 22 21 20 17 17 18 18 18 18 18 18 17 15 11 8 7 6 7 6 5 5 5 4 3 1
7 18 21 18 13 16 20 22 26 23 6 7 17 22 22 22 25 24 23 21 20 16 15 14 18 18 18 18 17 18 18 17 14 9 8 5 6 5 5 5 5 4 3 2
23 17 2 5 14 15 20 21 22 21 7 13 13 17 17 14 18 19 19 23 18 17 14 15 17 20 19 20 20 19 19 18 16 14 9 6 4 3 5 6 5 5 4 4
19 19 20 19 20 18 20 16 19 19 11 12 3 16 12 15 17 14 18 22 16 12 11 12 17 19 21 19 17 19 19 18 16 16 12 15 9 7 6 4 4 4 5 6
12 8 7 14 23 11 12 3 4 9 13 17 13 17 14 7 10 13 17 22 16 5 8 13 16 17 17 18 18 18 18 17 16 16 15 12 11 7 5 6 6 6 6 7
19 3 5 5 3 3 5 3 5 5 7 13 16 20 6 8 5 5 11 17 4 5 8 12 13 15 15 15 16 16 18 17 16 17 17 15 13 11 8 7 6 5 5 4
12 23 6 5 7 4 8 6 6 9 9 19 14 15 14 9 13 14 22 21 4 8 11 13 16 16 15 16 17 16 20 20 20 19 18 16 14 12 11 9 7 7 5 5
8 10 19 15 19 6 14 11 7 14 15 25 2 15 11 13 15 14 16 9 3 8 9 12 14 15 16 18 19 20 21 21 20 19 18 15 14 8 8 8 6 5 6 6
9 13 4 5 2 6 9 8 3 9 1 10 12 20 15 7 11 17 7 5 9 12 13 14 14 14 15 17 20 22 21 20 20 20 17 16 14 12 10 10 9 7 7 6
8 14 9 6 4 3 6 2 6 5 7 17 28 23 15 15 18 11 8 9 12 8 10 12 12 13 14 16 16 19 19 20 19 18 16 14 14 13 11 10 10 10 8 7
9 9 5 6 12 15 6 8 6 4 8 11 21 12 7 8 5 9 8 7 7 3 7 10 11 12 14 14 15 16 18 19 19 18 17 16 14 13 11 10 9 9 7 7
8 3 12 23 4 4 8 21 19 11 14 9 14 34 7 1 3 4 6 6 6 7 8 10 12 14 14 16 15 16 16 17 18 17 17 16 15 13 12 10 10 8 8 7
8 3 5 12 8 4 8 13 12 17 15 28 16 31 14 18 14 3 6 9 9 11 13 14 10 13 15 15 15 16 15 17 17 17 17 15 14 13 12 11 9 8 8 8
9 8 13 21 22 5 12 19 17 19 18 24 28 27 40 30 27 26 20 22 17 18 16 15 11 15 15 15 15 15 16 16 16 17 17 16 14 13 11 10 9 8 7 7
3 17 21 28 34 34 27 18 15 26 27 23 31 23 29 31 30 29 21 26 25 25 21 15 16 16 15 14 14 14 15 17 17 17 16 15 14 11 10 9 8 7 6 6
8 12 19 24 30 30 30 26 33 30 26 30 28 33 29 38 36 32 33 30 23 25 20 17 14 12 12 16 16 15 16 18 18 18 16 13 13 11 10 9 8 6 5 7
8 8 11 20 25 24 22 39 33 35 40 33 31 39 40 37 31 29 32 23 22 20 20 17 16 11 13 15 16 18 17 15 16 14 14 13 12 12 10 9 7 7 7 6
12 20 12 10 9 21 23 21 31 37 37 37 29 31 33 31 32 20 25 19 22 17 19 17 12 10 9 9 12 13 15 17 17 16 15 14 13 12 11 10 9 8 6 6
24 19 11 11 18 16 11 23 24 23 34 25 30 34 35 31 19 24 27 15 19 21 12 4 5 3 6 10 12 14 14 15 15 15 14 13 12 12 11 9 9 7 5 4
30 23 19 11 11 19 18 27 26 21 12 23 26 27 27 23 12 18 23 9 10 6 5 7 9 8 12 12 15 15 14 16 16 14 13 11 11 10 10 9 7 5 3 4
11 16 24 23 22 12 12 15 8 23 19 31 27 27 28 21 18 19 6 3 4 6 8 5 8 9 10 12 16 19 18 13 11 12 12 10 11 10 10 9 6 5 5 3
23 13 13 13 18 25 14 21 28 25 21 19 20 20 17 17 17 16 15 8 10 9 7 10 9 9 10 13 14 15 18 16 15 14 14 11 10 8 8 9 7 5 5 3
25 21 19 19 15 10 7 20 21 24 28 26 23 22 15 8 9 7 9 9 10 9 7 7 9 11 11 14 15 16 15 20 18 15 12 11 11 9 8 8 8 7 5 2
7 13 9 16 11 19 24 23 17 22 16 13 11 12 11 9 10 9 6 8 7 9 10 11 12 13 14 14 14 15 17 17 18 17 14 12 11 9 7 6 5 4 4 3
16 20 21 25 19 21 18 17 15 10 13 18 17 15 16 16 17 16 16 15 9 9 10 13 14 13 15 16 15 16 16 17 15 14 13 12 9 9 9 6 5 5 4 3
18 22 20 22 27 21 21 20 20 18 17 17 17 19 19 18 18 17 13 14 11 11 12 13 14 15 17 17 17 17 18 18 18 14 12 10 9 8 8 7 5 4 4 3
Wind_Direction
198 222 229 237 228 251 276 283 278 273 265 213 241 253 264 278 274 273 270 272 258 254 249 203 207 205 195 193 192 192 188 188 178 177 176 195 199 193 192 188 181 190 182 215
203 232 249 271 288 274 264 263 268 276 273 210 267 267 268 272 267 266 274 272 266 266 237 195 200 198 192 190 192 192 194 190 189 185 190 190 188 193 193 176 185 194 195 222
240 250 79 253 251 250 248 252 261 264 271 218 274 269 256 246 252 260 266 262 265 260 245 193 194 191 191 195 194 194 193 191 189 185 180 178 150 175 191 198 196 186 188 218
254 262 266 265 255 256 262 269 252 266 273 265 155 284 272 286 266 238 265 275 269 247 227 193 187 194 196 198 195 196 196 193 188 186 183 190 195 188 195 168 156 172 213 232
224 223 217 232 245 255 249 340 260 254 256 278 261 268 269 221 264 249 246 261 276 296 181 194 188 195 196 193 195 194 196 195 186 185 191 193 199 196 163 167 187 210 223 232
257 96 235 246 104 229 111 254 239 229 260 251 250 240 278 231 204 237 256 262 198 144 178 193 185 189 196 189 194 191 196 197 191 189 195 197 197 191 184 189 202 212 223 240
222 225 195 177 202 170 203 212 268 244 224 261 269 262 266 278 252 238 256 265 119 161 180 184 180 187 192 191 191 193 198 201 194 194 196 196 195 194 194 192 203 215 224 233
238 241 197 189 218 250 197 215 219 273 269 284 234 263 252 248 238 238 253 261 244 186 191 193 193 191 192 190 193 194 203 201 196 194 195 191 191 190 188 193 201 215 229 244
217 246 130 186 154 194 156 204 302 275 174 280 263 258 253 167 198 229 228 218 233 220 211 207 206 198 196 194 197 200 201 203 200 195 190 187 185 183 184 187 195 209 224 235
246 266 174 139 166 210 235 99 176 213 274 265 278 281 269 262 232 221 231 236 258 217 207 211 211 201 201 204 202 202 204 203 199 192 190 185 179 181 181 182 193 204 211 221
243 221 211 146 202 204 182 220 223 297 240 258 280 269 71 109 147 176 214 227 249 213 207 217 204 206 207 207 201 205 204 198 197 191 186 181 176 178 179 185 196 203 208 217
213 280 234 239 287 335 270 231 216 218 223 232 252 274 68 210 252 146 154 199 210 211 225 233 210 204 201 207 204 205 200 199 198 187 183 180 170 172 175 185 192 192 205 216
169 217 244 265 238 163 226 226 246 242 252 244 237 258 171 252 263 215 214 220 227 234 243 244 208 203 210 208 201 201 198 197 190 182 181 178 172 172 178 182 184 187 205 221
160 199 232 240 245 244 214 227 224 229 236 247 242 261 276 267 275 276 278 274 277 264 246 255 218 221 210 204 199 199 193 190 181 179 178 174 173 174 173 174 180 189 203 221
246 244 240 245 261 262 269 268 218 225 236 242 260 251 260 277 271 275 283 283 285 286 277 264 235 236 213 201 196 196 190 184 176 175 178 173 166 162 160 167 179 188 206 230
199 249 248 256 253 259 260 259 254 255 246 247 251 265 257 261 274 276 275 280 287 283 278 266 259 247 202 200 194 186 185 179 170 175 176 164 155 152 159 173 175 183 205 229
196 215 224 240 240 248 251 240 247 255 258 252 252 251 259 266 257 265 275 282 275 279 286 283 273 253 208 199 185 185 176 161 169 169 161 152 154 156 161 162 171 190 210 227
197 212 222 242 220 231 235 243 234 241 249 255 246 254 258 260 271 277 271 272 275 274 277 277 275 259 194 178 175 162 161 163 168 165 157 159 159 157 156 163 181 194 198 222
214 215 230 226 224 247 208 224 220 224 240 250 251 251 255 266 270 269 266 257 255 259 269 2 6 32 128 153 153 150 154 164 169 169 161 154 154 152 155 170 182 185 193 221
221 218 227 214 230 235 230 235 251 250 251 252 243 252 254 253 239 254 258 208 233 145 187 173 154 143 144 153 144 150 169 170 174 165 155 149 144 142 154 167 174 179 188 226
198 223 224 230 242 243 226 241 248 236 244 232 244 248 257 257 246 257 131 196 189 185 183 162 148 159 160 148 156 156 158 178 161 138 134 137 145 150 155 156 165 170 201 224
221 203 216 233 244 249 214 233 229 237 244 250 250 253 257 260 258 252 252 199 193 201 192 168 159 157 152 160 161 164 161 150 142 136 139 145 148 150 157 156 162 179 192 207
246 259 261 235 242 230 194 228 250 249 253 260 269 275 281 279 275 248 231 218 213 196 189 173 163 154 165 171 172 167 159 144 136 136 142 146 151 155 157 162 168 174 167 199
285 304 332 333 4 332 321 311 301 309 321 328 344 343 341 308 312 296 280 248 215 187 186 170 165 170 174 176 178 164 154 142 142 142 147 149 152 153 161 171 173 168 163 162
281 294 281 285 274 285 291 298 304 294 300 304 311 304 300 301 290 277 274 264 233 203 182 178 180 180 177 170 165 153 148 145 143 141 142 148 153 158 161 172 170 175 152 197
272 276 276 280 291 288 292 325 333 322 303 300 294 293 290 279 270 265 251 248 237 204 182 184 185 176 171 165 155 152 151 153 148 148 148 153 153 159 161 153 154 183 159 165